Location: Gazon
(48.1318°N, 1.2708°W)
Time: 01:58:04
(UTC+00:00)

Cosmos 2233 Rocket - Pass Details

Date: 18 September 2020
Orbit: 953 x 991 km, 82.9° (Epoch: 29 October)

Event Time Altitude Azimuth Distance (km) Brightness Sun altitude
Rises 18:41:20 0° 183° (S) 3,670 7.0 -5.9°
Reaches altitude 10° 18:43:51 10° 183° (S) 2,721 6.3 -6.4°
Maximum altitude 18:50:05 82° 97° (E) 986 4.0 -7.4°
Drops below altitude 10° 18:56:18 10° 11° (N) 2,713 6.4 -8.4°
Sets 18:58:48 0° 10° (N) 3,658 7.0 -8.8°
